Printer-friendly version

IAU Minor Planet Center

Minor Planet Center

MPEC 2009-U90 : 2009 UE19

The following Minor Planet Electronic Circular may be linked-to from your own Web pages, but must not otherwise be redistributed electronically.


Read MPEC 2009-U89 Read MPEC 2009-U91


M.P.E.C. 2009-U90                                Issued 2009 Oct. 25, 00:51 UT

     The Minor Planet Electronic Circulars contain information on unusual
         minor planets and routine data on comets.  They are published
   on behalf of Commission 20 of the International Astronomical Union by the
          Minor Planet Center, Smithsonian Astrophysical Observatory,
                          Cambridge, MA 02138, U.S.A.

             Prepared using the Tamkin Foundation Computer Network

                              MPC@CFA.HARVARD.EDU
          URL http://www.cfa.harvard.edu/iau/mpc.html  ISSN 1523-6714

                                   2009 UE19

Observations:
     K09U19E* C2009 10 24.43896 04 53 11.90 +19 50 44.7          19.6 V EU090703
     K09U19E  C2009 10 24.44804 04 53 12.22 +19 51 27.9          19.2 V EU090703
     K09U19E  C2009 10 24.45720 04 53 12.51 +19 52 07.3          19.1 V EU090703
     K09U19E  C2009 10 24.46630 04 53 12.84 +19 52 50.1          18.8 V EU090703
     K09U19E  C2009 10 24.48987 04 53 13.42 +19 54 37.4          19.1 R EU090H01
     K09U19E  C2009 10 24.49410 04 53 13.55 +19 54 56.9          19.2 R EU090H01
     K09U19E  C2009 10 24.49761 04 53 13.66 +19 55 12.9          19.2 R EU090H01
     K09U19E  C2009 10 24.50105 04 53 13.77 +19 55 28.8          19.3 R EU090H01
     K09U19E  C2009 10 24.50493 04 53 13.88 +19 55 47.3          19.3 V EU090703
     K09U19E  C2009 10 24.50554 04 53 13.99 +19 55 50.3          19.3 V EU090703
     K09U19E  C2009 10 24.50617 04 53 13.99 +19 55 53.6          18.9 V EU090703
     K09U19E  C2009 10 24.50681 04 53 13.99 +19 55 56.1          19.6 V EU090703
     K09U19E IC2009 10 25.00267 04 53 35.96 +20 33 57.7                 EU090J95
     K09U19E  C2009 10 25.00740 04 53 36.12 +20 34 20.0                 EU090J95
     K09U19E  C2009 10 25.01198 04 53 36.20 +20 34 41.2          19.6 R EU090J95

Observer details:
703 Catalina Sky Survey.  Observer R. A. Kowalski.  Measurers E. C. Beshore,
    A. Boattini, G. J. Garradd, A. R. Gibbs, A. D. Grauer, R. E. Hill,
    R. A. Kowalski, S. M. Larson, R. H. McNaught.  0.68-m Schmidt + CCD.
H01 Magdalena Ridge Observatory, Socorro.  Observers W. H. Ryan, E. V. Ryan.
    Measurer W. H. Ryan.  2.4-m f/8.9 reflector + CCD.
J95 Great Shefford.  Observer P. Birtwhistle.  0.40-m f/6.0 Schmidt-Cassegrain
    + CCD.

Orbital elements:
2009 UE19                                                Earth MOID = 0.2221 AU
Epoch 2010 Jan. 4.0 TT = JDT 2455200.5                  MPC
M  24.50258              (2000.0)            P               Q
n   0.32319012     Peri.  354.39464     +0.80262340     -0.55360490
a   2.1029583      Node    41.86567     +0.55938082     +0.56932207
e   0.4233285      Incl.   19.43597     +0.20709605     +0.60777791
P   3.05           H   20.3           G   0.15           U   9
Residuals in seconds of arc
091024 703  0.8-  0.1-    091024 H01  0.2+  0.1+    091024 703  0.0   0.4+
091024 703  0.1-  1.4+    091024 H01  0.2+  0.0     091024 703  0.3-  0.0
091024 703  0.1+  1.3-    091024 H01  0.3+  0.2+    091025 J95  0.3+  0.1-
091024 703  0.9+  0.3-    091024 703  1.0-  0.2-    091025 J95  0.3+  0.1+
091024 H01  0.3+  0.0     091024 703  0.2+  0.0     091025 J95  0.6-  0.0

Ephemeris:
2009 UE19                a,e,i = 2.10, 0.42, 19                  q = 1.2127
Date    TT    R. A. (2000) Decl.     Delta      r     Elong.  Phase     V
2009 10 16    04 45.38   +09 43.0    0.301    1.213   130.3    38.8    19.7
2009 10 26    04 54.21   +21 51.6    0.277    1.214   137.8    33.4    19.3
2009 11 05    04 56.77   +35 01.5    0.274    1.223   143.9    28.5    19.2
2009 11 15    04 51.36   +46 55.4    0.290    1.241   146.0    26.5    19.3
2009 11 25    04 37.85   +55 44.9    0.325    1.265   144.3    27.1    19.6
2009 12 05    04 20.26   +61 06.4    0.373    1.297   141.0    28.6    20.0
2009 12 15    04 05.52   +63 37.6    0.432    1.334   137.3    30.0    20.4
2009 12 25    03 59.65   +64 13.1    0.499    1.376   133.7    31.1    20.8
2010 01 04    04 04.16   +63 39.8    0.574    1.422   130.1    31.9    21.2
2010 01 14    04 17.09   +62 26.4    0.657    1.472   126.4    32.5    21.6
2010 01 24    04 35.93   +60 48.8    0.747    1.523   122.6    33.0    22.0

Timothy B. Spahr             (C) Copyright 2009 MPC           M.P.E.C. 2009-U90

Read MPEC 2009-U89 Read MPEC 2009-U91

Valid HTML 4.01!